Regional Weather Roundup
Issued by NWS Jackson, KY

Home | Current Version | Previous Version | Text Only | Print | Product List | Glossary Off
Versions: 1 2 3 4 5 6 7 8 9 10 11 12 13 14 15 16 17 18 19 20 21 22 23 24 25 26 27 28

000
ASUS43 KJKL 282110
RWRJKL

EAST KENTUCKY HOURLY WEATHER ROUNDUP
NATIONAL WEATHER SERVICE JACKSON KY
500 PM EDT TUE MAR 28 2017

NOTE: "FAIR" INDICATES FEW OR NO CLOUDS BELOW 12,000 FEET WITH
NO SIGNIFICANT WEATHER AND/OR OBSTRUCTIONS TO VISIBILITY.

* THESE REPORTS ARE NOT UNDER NWS QUALITY CONTROL AND MAY NOT
  REPORT WEATHER SUCH AS PRECIPITATION AND FOG.

KYZ079-080-083-085-087-088-110-112-115-119-120-282200
...EASTERN KENTUCKY...

CITY           SKY/WX    TMP DP  RH WIND       PRES   REMARKS
JACKSON        CLOUDY    63  53  70 NW6       29.99S
LONDON         CLOUDY    64  49  57 W9        30.00R
SOMERSET*      CLOUDY    63  52  67 W6        30.02S
MONTICELLO*    CLOUDY    64  53  67 W9G17     30.03S
WILLIAMSBURG*  CLOUDY    64  52  63 W8        30.00S
MIDDLESBORO*   CLOUDY    67  52  57 W3        29.99S
HARLAN APT*    CLOUDY    63  50  63 SW3       30.00R
PIKE CO APT*   CLOUDY    61  55  78 W5        29.99S
BIG SANDY APT* CLOUDY    62  55  77 W3        29.99S
MOREHEAD APT*  CLOUDY    63  52  67 NW8       30.00S
ASHLAND*       CLOUDY    64  57  77 CALM      29.95S
$$

KYZ035-036-041-042-044-050-067-078-099-282200
...CENTRAL KENTUCKY...

CITY           SKY/WX    TMP DP  RH WIND       PRES   REMARKS
MT STERLING*   CLOUDY    61  54  77 NW7       30.02R
FLEMING/MASON* CLOUDY    61  54  78 N10       30.01R
DANVILLE*      CLOUDY    61  54  77 W7        30.03R
LEXINGTON      CLOUDY    62  53  72 NW8       30.02R
FRANKFORT      CLOUDY    63  51  65 N8        30.01R
LOUISVILLE     MOSUNNY   68  49  50 N9G17     30.01S
LEBANON*       CLOUDY    61  55  82 SW3       30.03S
GLASGOW*       CLOUDY    63  54  74 N3        30.02S
BOWLING GREEN  CLOUDY    64  54  69 N3        30.03S
$$

KYZ091>093-OHZ055-061-077-WVZ005-015-034-035-042-282200
...SOUTHERN OHIO/WEST VIRGINIA...

CITY           SKY/WX    TMP DP  RH WIND       PRES   REMARKS
COVINGTON      CLOUDY    58  50  75 NW10      30.03R
COLUMBUS       MOSUNNY   59  48  67 N14G20    30.01R
DAYTON         CLOUDY    54  47  77 N10       30.05R
WILMINGTON     CLOUDY    55  50  83 N9        30.02R
HUNTINGTON     CLOUDY    64  53  67 NW3       29.96R
CHARLESTON     PTSUNNY   67  53  61 VRB7      29.94S
PINEVILLE*     CLOUDY    62  52  69 MISG      30.02S
BECKLEY        CLOUDY    57  51  80 NW8       29.97S
LOGAN CO APT*  CLOUDY    61  54  77 W5        29.98R
$$

VAZ002-007-008-TNZ017-027-036-066-071-282200
...SOUTHWEST VIRGINIA/EAST TENNESSEE...

CITY           SKY/WX    TMP DP  RH WIND       PRES   REMARKS
WISE*          CLOUDY    59  46  63 W9        30.02S
JONESVILLE*    CLOUDY    66  50  55 W5        30.01S
ABINGDON*      CLOUDY    65  53  67 N8        29.99S
BRISTOL        CLOUDY    67  49  52 W13       29.97S
MORRISTOWN*    PTCLDY    70  54  56 W7        29.97S
SEVIERVILLE*   MOCLDY    70  52  52 W7        29.96S
KNOXVILLE      MOSUNNY   72  52  49 W7        29.96S
LAFOLLETTE*    CLOUDY    70  50  49 VRB5      30.00S
OAK RIDGE      MOSUNNY   73  50  44 SW6       29.97F
CROSSVILLE     CLOUDY    62  50  64 VRB7      30.03S
NASHVILLE      PTSUNNY   71  51  49 NE9       30.00F
$$

...KEY TO REMARKS...
VSB - VISIBILITY IN MILES
WCI - WIND CHILL INDEX
HX  - HEAT INDEX

$$




USA.gov is the U.S. government's official web portal to all federal, state and local government web resources and services.